Find Starlink 36572

NORAD ID: 67536 Int'l Des: 2026-014 Owner: SPXS Country: US Constellation: starlink operational
LEOCIRCULARRETROGRADE

当前视图

正在加载3D地球...

关于 Starlink 36572

正在加载描述...

即将过境

Passes for default location (London). Set your location on the main map for personalized predictions.

高度历史

Loading altitude history...

两行轨道根数

1 67536U 26014E 26146.22063897 .00018330 00000-0 56867-3 0 9996
2 67536 97.2874 33.2250 0001817 89.8087 270.3364 15.33447321 20660
Epoch: May 26, 2026 • Age: 8 hours

当前状态

高度 470.2 km
速度 7.64 km/s
星下点 38.34°N, 129.1°E
发射日期 Jan 22, 2026
运行时间 0.3 years
类型 internet

技术详情

分类 Payload
质量 575.00 kg
干质量 530.00 kg
总质量 575.00 kg
长度 0.30 m
直径 4.10 m
跨度 29.00 m
形状 Box + pan
制造商 SPXS
平台类型 Starlink V2MO
阶段状态 In Orbit
所有者/国家 SPXS/US

Most Searched